Eau Claire, WI

6:54 PM CDT on March 27, 2017 (GMT -0500)
Chippewa Valley Regional

Weather History for KEAU - July, 2013

Change the Weather History Date:

Friday, July 19, 2013

  Actual Average Record
Temperature  
Mean Temperature 77 °F 72 °F  
Max Temperature 88 °F 83 °F 103 °F (1901)
Min Temperature 66 °F 60 °F 46 °F (1929)
Degree Days  
Heating Degree Days 0 0  
Month to date heating degree days 0 2  
Since 1 June heating degree days 63 64  
Since 1 July heating degree days 0 2  
Cooling Degree Days 12 7  
Month to date cooling degree days 210 132  
Year to date cooling degree days 332 284  
Since 1 June cooling degree days 300 252  
Growing Degree Days 28 (Base 50)    
Moisture  
Dew Point 64 °F    
Average Humidity 61    
Maximum Humidity 87    
Minimum Humidity 34    
Precipitation  
Precipitation 0.03 in 0.13 in 1.77 in (1997)
Month to date precipitation 0.17 2.36  
Year to date precipitation 26.08 16.13  
Snow  
Snow 0.00 in 0.00 in 0.00 in ()
Month to date snowfall 0.0 0.0  
Since 1 June snowfall 0.0 0.0  
Since 1 July snowfall 0.0 0.0  
Snow Depth 0.00 in    
Sea Level Pressure  
Sea Level Pressure 29.76 in    
Wind  
Wind Speed 11 mph (West)    
Max Wind Speed 25 mph    
Max Gust Speed 33 mph    
Visibility 10 miles    
Events Rain , Thunderstorm    
T = Trace of Precipitation, MM = Missing Value Source: NWS Daily Summary

Daily Weather History Graph

Daily Weather History Graph

Search for Another Location

Airport or City:

Trip Planner

Search our weather history database for the weather conditions in past years. The results will help you decide how hot, cold, wet, or windy it might be!

Date:

Astronomy

Jul. 19, 2013 Rise Set
Actual Time 5:38 AM CDT 8:45 PM CDT
Civil Twilight 5:02 AM CDT 9:21 PM CDT
Nautical Twilight 4:17 AM CDT 10:06 PM CDT
Astronomical Twilight 3:21 AM CDT 11:01 PM CDT
Moon 5:48 PM CDT (7/19) 2:20 AM CDT (7/19)
Length of Visible Light 16h 18m
Length of Day
15h 07m
Waxing Gibbous, 87% of the Moon is Illuminated
Jul 19
Waxing Gibbous
Jul 22
Full
Jul 29
Last Quarter
Aug 6
New
Aug 14
First Quarter

Hourly Weather History & Observations

Time (CDT) Temp. Heat Index Dew Point Humidity Pressure Visibility Wind Dir Wind Speed Gust Speed Precip Events Conditions
12:56 AM 84.0 °F 86.5 °F 66.9 °F 56% 29.75 in 10.0 mi SW 11.5 mph - N/A   Clear
1:56 AM 82.9 °F 85.4 °F 66.9 °F 58% 29.72 in 10.0 mi SW 10.4 mph 18.4 mph N/A   Clear
2:56 AM 82.9 °F 85.4 °F 66.9 °F 58% 29.68 in 10.0 mi SW 12.7 mph 19.6 mph N/A   Scattered Clouds
3:56 AM 79.0 °F - 69.1 °F 72% 29.70 in 10.0 mi WSW 21.9 mph 33.4 mph 0.02 in Rain , Thunderstorm Light Rain
4:12 AM 75.2 °F - 71.6 °F 89% 29.71 in 10.0 mi WSW 12.7 mph 21.9 mph 0.01 in   Partly Cloudy
4:56 AM 77.0 °F - 70.0 °F 79% 29.70 in 10.0 mi WSW 13.8 mph - 0.01 in   Overcast
5:56 AM 75.9 °F - 71.1 °F 85% 29.71 in 10.0 mi WSW 11.5 mph - N/A   Clear
6:56 AM 75.9 °F - 71.1 °F 85% 29.73 in 10.0 mi WSW 10.4 mph - N/A   Partly Cloudy
7:56 AM 79.0 °F - 71.1 °F 77% 29.72 in 10.0 mi WSW 12.7 mph - N/A   Clear
8:56 AM 82.0 °F 86.7 °F 72.0 °F 71% 29.73 in 10.0 mi WSW 10.4 mph - N/A   Clear
9:56 AM 84.0 °F 89.0 °F 71.1 °F 65% 29.73 in 10.0 mi WNW 16.1 mph 24.2 mph N/A   Partly Cloudy
10:56 AM 84.9 °F 87.6 °F 66.9 °F 55% 29.73 in 10.0 mi West 13.8 mph - N/A   Scattered Clouds
11:56 AM 87.1 °F 86.5 °F 59.0 °F 39% 29.74 in 10.0 mi WNW 16.1 mph 24.2 mph N/A   Clear
12:56 PM 86.0 °F 86.1 °F 61.0 °F 43% 29.76 in 10.0 mi NW 17.3 mph 25.3 mph N/A   Partly Cloudy
1:56 PM 86.0 °F 86.1 °F 61.0 °F 43% 29.77 in 10.0 mi NW 10.4 mph 25.3 mph N/A   Mostly Cloudy
2:56 PM 84.9 °F 85.4 °F 62.1 °F 46% 29.77 in 10.0 mi NW 17.3 mph 24.2 mph N/A   Partly Cloudy
3:56 PM 87.1 °F 86.1 °F 57.9 °F 37% 29.78 in 10.0 mi NNW 13.8 mph 21.9 mph N/A   Partly Cloudy
4:56 PM 86.0 °F 84.9 °F 57.0 °F 37% 29.78 in 10.0 mi NNW 10.4 mph 19.6 mph N/A   Clear
5:56 PM 84.0 °F 83.5 °F 57.9 °F 41% 29.78 in 10.0 mi WNW 16.1 mph 21.9 mph N/A   Clear
6:56 PM 82.0 °F - 51.1 °F 34% 29.79 in 10.0 mi NW 12.7 mph 23.0 mph N/A   Clear
7:56 PM 79.0 °F - 55.9 °F 45% 29.81 in 10.0 mi NNW 6.9 mph - N/A   Clear
8:56 PM 73.0 °F - 60.1 °F 64% 29.81 in 10.0 mi WNW 4.6 mph - N/A   Clear
9:56 PM 72.0 °F - 60.1 °F 66% 29.82 in 10.0 mi Calm Calm - N/A   Clear
10:56 PM 69.1 °F - 61.0 °F 75% 29.83 in 10.0 mi West 3.5 mph - N/A   Clear
11:56 PM 69.1 °F - 60.1 °F 73% 29.85 in 10.0 mi West 3.5 mph - N/A   Clear